"startDT [UTC]","vpos","CH4 [ppm]","stdev(CH4) [ppm]","CO2 [ppm]","stdev(CO2) [ppm]","H2O [ppm]","stdev(H2O)","p_LGR [torr]","T_LGR [C]","mt1_LGR [us]","mt2_LGR [us]","T_ECpre [C]","T_EC1 [C]","T_EC2 [C]","p_inlet [hPa]","p_in [hPa]","p_out [hPa]","T_inlet [C]","RH_inlet [%]","dwpt_inlet [C]","T_vent [C]","RH_vent [%]","dwpt_vent [C]","flow_vent [l min-1]","flow_inlet [l min-1]","dwpt_sample [C]","T_room [C]"
2012-12-03 00:00:00,0.0,1.9478,0.0009,409.80,0.23,-1.0,0.0,138.21,23.94,24.61,36.29,0.04,-272.74,-272.74,-36,548,-931,19.0,1.1,-37.4,19.1,1.2,-36.9,5.73,2.44,-32.7,24.0
2012-12-03 00:01:00,0.0,1.9475,0.0010,409.78,0.26,-1.0,0.0,138.21,23.94,24.61,36.29,0.04,-272.74,-272.74,-36,548,-931,19.0,1.1,-37.5,19.1,1.1,-37.1,5.73,2.44,-32.7,24.0
2012-12-03 00:02:00,0.0,1.9477,0.0009,409.76,0.20,-1.0,0.0,138.21,23.94,24.61,36.29,0.04,-272.74,-272.74,-36,548,-931,19.0,1.1,-37.6,19.1,1.1,-37.2,5.73,2.43,-32.7,24.0
2012-12-03 00:03:00,0.0,1.9467,0.0012,409.68,0.26,-1.0,0.0,138.21,23.94,24.61,36.29,0.04,-272.74,-272.75,-36,548,-931,19.0,1.1,-37.6,19.1,1.1,-37.2,5.73,2.44,-32.7,24.1
2012-12-03 00:04:00,0.0,1.9464,0.0011,409.77,0.26,-1.0,0.0,138.21,23.95,24.61,36.29,0.04,-272.74,-272.74,-36,548,-931,19.0,1.1,-37.4,19.0,1.1,-37.1,5.73,2.44,-32.7,24.1
2012-12-03 00:05:00,0.0,1.9463,0.0012,409.69,0.27,-1.0,0.0,138.21,23.95,24.61,36.29,0.04,-272.74,-272.75,-36,548,-931,19.0,1.1,-37.4,19.1,1.1,-37.1,5.73,2.44,-32.7,24.0
2012-12-03 00:06:00,0.0,1.9459,0.0009,409.67,0.20,-1.0,0.0,138.21,23.95,24.61,36.29,0.04,-272.74,-272.74,-36,548,-931,19.0,1.1,-37.3,19.1,1.2,-36.9,5.73,2.44,-32.7,24.1
2012-12-03 00:07:00,0.0,1.9461,0.0008,409.81,0.28,-1.0,0.0,138.21,23.95,24.61,36.28,0.04,-272.75,-272.74,-36,548,-931,19.0,1.1,-37.2,19.0,1.2,-36.9,5.73,2.44,-32.7,24.0
2012-12-03 00:08:00,0.0,1.9462,0.0009,409.62,0.25,-1.0,0.0,138.21,23.96,24.61,36.30,0.04,-272.74,-272.74,-36,548,-931,19.0,1.1,-37.1,19.1,1.2,-36.7,5.73,2.44,-32.7,24.1
2012-12-03 00:09:00,0.0,1.9465,0.0010,409.80,0.21,-1.0,0.0,138.21,23.96,24.61,36.29,0.04,-272.74,-272.74,-36,548,-931,19.0,1.1,-37.2,19.1,1.2,-36.7,5.73,2.44,-32.7,24.1
2012-12-03 00:10:00,0.0,1.9472,0.0012,409.84,0.24,-1.0,0.0,138.21,23.96,24.61,36.28,0.04,-272.75,-272.74,-36,548,-931,19.0,1.2,-37.0,19.1,1.2,-36.6,5.73,2.44,-32.7,24.1
2012-12-03 00:11:00,0.0,1.9472,0.0008,409.80,0.30,-1.0,0.0,138.21,23.97,24.61,36.29,0.04,-272.74,-272.74,-36,548,-931,19.0,1.2,-36.9,19.0,1.2,-36.5,5.73,2.44,-32.7,24.0
2012-12-03 00:12:00,0.0,1.9468,0.0011,409.72,0.21,-1.0,0.0,138.21,23.97,24.62,36.29,0.04,-272.74,-272.74,-36,548,-931,19.0,1.2,-36.8,19.0,1.2,-36.4,5.73,2.44,-32.8,24.0
2012-12-03 00:13:00,0.0,1.9466,0.0009,409.74,0.25,-1.0,0.0,138.21,23.97,24.61,36.29,0.04,-272.74,-272.75,-36,548,-931,18.9,1.2,-36.7,19.0,1.2,-36.2,5.73,2.43,-32.8,24.0
2012-12-03 00:14:00,0.0,1.9462,0.0009,409.63,0.23,-1.0,0.0,138.21,23.97,24.61,36.30,0.04,-272.74,-272.74,-36,548,-931,18.9,1.2,-36.5,19.0,1.3,-36.1,5.73,2.44,-32.8,24.0
2012-12-03 00:15:00,0.0,1.9467,0.0009,409.69,0.22,-1.0,0.0,138.21,23.97,24.61,36.30,0.04,-272.74,-272.74,-36,548,-931,19.0,1.2,-36.4,19.0,1.3,-36.0,5.73,2.44,-32.8,24.0
2012-12-03 00:16:00,0.0,1.9467,0.0009,409.75,0.24,-1.0,0.0,138.21,23.98,24.61,36.29,0.04,-272.74,-272.74,-36,548,-931,18.9,1.2,-36.4,19.0,1.3,-36.0,5.73,2.44,-32.8,24.0
2012-12-03 00:17:00,0.0,1.9467,0.0009,409.71,0.20,-1.0,0.0,138.21,23.98,24.61,36.29,0.04,-272.74,-272.75,-36,548,-931,18.9,1.2,-36.7,19.0,1.2,-36.2,5.73,2.44,-32.8,24.0
2012-12-03 00:18:00,0.0,1.9466,0.0009,409.73,0.24,-1.0,0.0,138.21,23.98,24.61,36.29,0.04,-272.74,-272.74,-36,547,-931,18.9,1.2,-36.9,19.0,1.2,-36.5,5.73,2.44,-32.8,24.0
2012-12-03 00:19:00,0.0,1.9467,0.0009,409.74,0.23,-1.0,0.0,138.21,23.99,24.61,36.29,0.04,-272.74,-272.74,-36,548,-931,18.9,1.2,-37.0,19.0,1.2,-36.5,5.73,2.44,-32.8,24.0
2012-12-03 00:20:00,0.0,1.9462,0.0009,409.80,0.23,-1.0,0.0,138.21,23.99,24.61,36.29,0.04,-272.74,-272.74,-36,547,-931,18.9,1.2,-37.1,19.0,1.2,-36.7,5.73,2.44,-32.8,24.0
2012-12-03 00:21:00,0.0,1.9459,0.0010,409.76,0.26,-1.0,0.0,138.21,23.98,24.61,36.29,0.04,-272.74,-272.74,-36,548,-931,18.9,1.1,-37.2,19.0,1.2,-36.7,5.73,2.45,-32.8,24.0
2012-12-03 00:22:00,0.0,1.9455,0.0010,409.69,0.23,-1.0,0.0,138.21,23.98,24.61,36.29,0.04,-272.74,-272.75,-36,548,-931,18.9,1.1,-37.2,19.0,1.2,-36.7,5.73,2.45,-32.8,24.0
2012-12-03 00:23:00,0.0,1.9457,0.0008,409.68,0.23,-1.0,0.0,138.21,23.98,24.61,36.29,0.04,-272.75,-272.74,-36,548,-931,18.9,1.2,-37.0,19.0,1.2,-36.6,5.73,2.45,-32.8,24.0
2012-12-03 00:24:00,0.0,1.9458,0.0010,409.67,0.21,-1.0,0.0,138.21,23.98,24.61,36.29,0.04,-272.74,-272.74,-36,548,-931,18.9,1.2,-37.0,19.0,1.2,-36.5,5.73,2.44,-32.8,24.0
2012-12-03 00:25:00,0.0,1.9458,0.0010,409.73,0.24,-1.0,0.0,138.21,23.99,24.61,36.29,0.04,-272.74,-272.74,-36,548,-931,18.9,1.2,-37.0,19.0,1.2,-36.5,5.73,2.45,-32.8,24.0
2012-12-03 00:26:00,0.0,1.9463,0.0011,409.60,0.25,-1.0,0.0,138.21,23.99,24.61,36.30,0.04,-272.74,-272.74,-36,548,-931,18.9,1.2,-37.0,19.0,1.2,-36.5,5.73,2.45,-32.8,24.0
2012-12-03 00:27:00,0.0,1.9465,0.0009,409.79,0.21,-1.0,0.0,138.21,24.00,24.61,36.29,0.04,-272.74,-272.74,-36,548,-931,18.9,1.2,-37.0,19.0,1.2,-36.5,5.73,2.45,-32.8,24.0
2012-12-03 00:28:00,0.0,1.9470,0.0012,409.84,0.28,-1.0,0.0,138.21,24.00,24.61,36.28,0.04,-272.74,-272.74,-36,548,-931,18.9,1.2,-36.9,19.0,1.2,-36.5,5.73,2.45,-32.8,24.0
2012-12-03 00:29:00,0.0,1.9462,0.0009,409.77,0.29,-1.0,0.0,138.21,24.00,24.61,36.29,0.04,-272.74,-272.74,-36,548,-931,18.9,1.2,-36.7,19.0,1.2,-36.3,5.73,2.45,-32.8,24.0
2012-12-03 00:30:00,0.0,1.9463,0.0009,409.72,0.29,-1.0,0.0,138.21,24.00,24.61,36.29,0.04,-272.74,-272.75,-36,548,-931,18.9,1.2,-36.7,19.0,1.2,-36.2,5.73,2.45,-32.9,24.0
2012-12-03 00:31:00,0.0,1.9464,0.0009,409.71,0.19,-1.0,0.0,138.21,24.00,24.61,36.29,0.04,-272.74,-272.75,-36,548,-931,18.9,1.2,-36.7,19.0,1.2,-36.3,5.73,2.45,-32.8,24.0
2012-12-03 00:32:00,0.0,1.9463,0.0010,409.76,0.22,-1.0,0.0,138.21,24.00,24.61,36.29,0.04,-272.75,-272.74,-36,548,-931,18.9,1.2,-36.7,19.0,1.2,-36.2,5.73,2.44,-32.8,24.0
2012-12-03 00:33:00,0.0,1.9461,0.0010,409.75,0.27,-1.0,0.0,138.21,24.01,24.61,36.29,0.04,-272.74,-272.75,-36,548,-931,18.9,1.2,-36.7,19.0,1.2,-36.3,5.73,2.45,-32.9,24.0
2012-12-03 00:34:00,0.0,1.9456,0.0009,409.66,0.21,-1.0,0.0,138.21,24.00,24.61,36.29,0.04,-272.74,-272.74,-36,548,-931,18.9,1.2,-36.8,19.0,1.2,-36.3,5.73,2.45,-32.9,24.0
2012-12-03 00:35:00,0.0,1.9455,0.0008,409.63,0.28,-1.0,0.0,138.21,24.00,24.61,36.29,0.04,-272.74,-272.74,-36,548,-931,18.9,1.2,-36.5,19.0,1.2,-36.2,5.73,2.45,-32.9,24.0
2012-12-03 00:36:00,0.0,1.9453,0.0012,409.65,0.20,-1.0,0.0,138.21,23.99,24.61,36.29,0.04,-272.75,-272.74,-36,547,-931,18.9,1.2,-36.5,19.0,1.2,-36.2,5.73,2.45,-32.9,24.0
2012-12-03 00:37:00,0.0,1.9453,0.0010,409.67,0.27,-1.0,0.0,138.21,23.99,24.61,36.28,0.04,-272.74,-272.74,-36,548,-931,18.9,1.2,-36.7,19.0,1.2,-36.3,5.73,2.45,-32.9,24.0
2012-12-03 00:38:00,0.0,1.9452,0.0010,409.56,0.23,-1.0,0.0,138.21,23.99,24.61,36.29,0.04,-272.74,-272.74,-36,547,-931,18.9,1.2,-36.8,19.0,1.2,-36.3,5.73,2.45,-32.9,24.0
2012-12-03 00:39:00,0.0,1.9444,0.0010,409.53,0.26,-1.0,0.0,138.21,23.98,24.61,36.30,0.04,-272.75,-272.74,-36,548,-931,18.9,1.2,-36.8,19.0,1.2,-36.3,5.73,2.45,-32.9,24.0
2012-12-03 00:40:00,0.0,1.9444,0.0009,409.57,0.24,-1.0,0.0,138.21,23.98,24.61,36.29,0.04,-272.74,-272.74,-36,547,-931,18.9,1.2,-36.7,19.0,1.2,-36.3,5.73,2.45,-32.9,24.0
2012-12-03 00:41:00,0.0,1.9442,0.0010,409.65,0.23,-1.0,0.0,138.21,23.98,24.61,36.28,0.04,-272.74,-272.74,-36,548,-931,18.8,1.2,-36.8,19.0,1.2,-36.3,5.73,2.45,-32.9,24.0
2012-12-03 00:42:00,0.0,1.9439,0.0010,409.51,0.26,-1.0,0.0,138.21,23.97,24.61,36.29,0.04,-272.74,-272.74,-36,548,-931,18.8,1.2,-36.8,19.0,1.2,-36.3,5.73,2.44,-32.9,24.0
2012-12-03 00:43:00,0.0,1.9441,0.0009,409.61,0.23,-1.0,0.0,138.21,23.97,24.61,36.29,0.04,-272.74,-272.74,-36,547,-931,18.9,1.2,-36.8,19.0,1.2,-36.3,5.73,2.44,-32.9,24.0
2012-12-03 00:44:00,0.0,1.9445,0.0010,409.56,0.26,-1.0,0.0,138.21,23.98,24.61,36.29,0.04,-272.74,-272.74,-36,547,-931,18.8,1.2,-36.8,19.0,1.2,-36.3,5.73,2.44,-32.9,24.0
2012-12-03 00:45:00,0.0,1.9433,0.0009,409.63,0.23,-1.0,0.0,138.21,23.99,24.61,36.28,0.04,-272.74,-272.74,-36,547,-931,18.9,1.2,-36.5,19.0,1.3,-36.1,5.73,2.44,-32.9,24.0
2012-12-03 00:46:00,0.0,1.9438,0.0010,409.61,0.27,-1.0,0.0,138.21,24.00,24.61,36.29,0.04,-272.74,-272.74,-36,547,-931,18.8,1.2,-36.5,19.0,1.3,-36.0,5.73,2.44,-33.0,24.0
2012-12-03 00:47:00,0.0,1.9434,0.0010,409.58,0.24,-1.0,0.0,138.21,24.01,24.62,36.29,0.04,-272.74,-272.75,-36,548,-931,18.8,1.2,-36.3,19.0,1.3,-36.0,5.73,2.44,-33.0,24.0
2012-12-03 00:48:00,0.0,1.9433,0.0009,409.67,0.23,-1.0,0.0,138.21,24.01,24.61,36.29,0.04,-272.74,-272.74,-36,547,-931,18.9,1.3,-36.3,19.0,1.3,-35.8,5.73,2.44,-33.0,24.0
2012-12-03 00:49:00,0.0,1.9437,0.0009,409.75,0.22,-1.0,0.0,138.21,24.02,24.61,36.28,0.04,-272.74,-272.74,-36,547,-931,18.9,1.3,-36.1,19.0,1.3,-35.7,5.73,2.44,-33.0,24.0
2012-12-03 00:50:00,0.0,1.9444,0.0010,409.55,0.21,-1.0,0.0,138.21,24.02,24.61,36.30,0.04,-272.75,-272.74,-36,547,-931,18.9,1.3,-36.1,19.0,1.3,-35.6,5.73,2.44,-33.0,24.0
2012-12-03 00:51:00,0.0,1.9437,0.0011,409.55,0.24,-1.0,0.0,138.21,24.03,24.61,36.30,0.04,-272.74,-272.75,-36,547,-931,18.8,1.3,-36.1,19.0,1.3,-35.6,5.73,2.43,-33.0,24.0
2012-12-03 00:52:00,0.0,1.9438,0.0009,409.78,0.24,-1.0,0.0,138.21,24.04,24.61,36.29,0.04,-272.74,-272.74,-36,548,-931,18.8,1.3,-35.9,19.0,1.3,-35.6,5.73,2.43,-33.0,24.0
2012-12-03 00:53:00,0.0,1.9442,0.0011,409.62,0.23,-1.0,0.0,138.21,24.04,24.61,36.30,0.04,-272.75,-272.74,-36,548,-931,18.8,1.3,-35.8,19.0,1.4,-35.4,5.73,2.44,-33.0,24.0
2012-12-03 00:54:00,0.0,1.9439,0.0010,409.70,0.24,-1.0,0.0,138.21,24.03,24.61,36.29,0.04,-272.74,-272.75,-36,548,-931,18.8,1.3,-35.7,19.0,1.4,-35.4,5.73,2.43,-33.0,24.0
2012-12-03 00:55:00,0.0,1.9440,0.0011,409.65,0.23,-1.0,0.0,138.21,24.04,24.61,36.29,0.04,-272.74,-272.74,-36,547,-931,18.8,1.3,-35.7,19.0,1.4,-35.4,5.73,2.44,-33.0,24.0
2012-12-03 00:56:00,0.0,1.9442,0.0010,409.55,0.22,-1.0,0.0,138.21,24.04,24.61,36.30,0.04,-272.74,-272.74,-36,548,-931,18.8,1.3,-35.7,19.0,1.4,-35.4,5.73,2.44,-33.0,24.0
2012-12-03 00:57:00,0.0,1.9441,0.0010,409.66,0.27,-1.0,0.0,138.21,24.04,24.61,36.29,0.04,-272.74,-272.75,-36,547,-931,18.9,1.3,-35.7,19.0,1.4,-35.2,5.73,2.43,-33.0,24.0
2012-12-03 00:58:00,0.0,1.9442,0.0008,409.76,0.25,-1.0,0.0,138.21,24.04,24.61,36.29,0.04,-272.74,-272.74,-36,548,-931,18.9,1.3,-35.6,19.0,1.4,-35.2,5.73,2.44,-33.0,24.0
2012-12-03 00:59:00,0.0,1.9447,0.0009,409.67,0.24,-1.0,0.0,138.21,24.04,24.60,36.29,0.04,-272.74,-272.74,-36,547,-931,18.8,1.4,-35.5,19.0,1.4,-35.1,5.73,2.44,-33.0,24.0
2012-12-03 01:00:00,0.0,1.9440,0.0010,409.66,0.23,-1.0,0.0,138.21,24.04,24.61,36.29,0.04,-272.74,-272.75,-36,547,-931,18.8,1.4,-35.5,19.0,1.4,-35.0,5.73,2.44,-33.0,24.0
2012-12-03 01:01:00,0.0,1.9441,0.0010,409.67,0.24,-1.0,0.0,138.21,24.05,24.61,36.29,0.04,-272.74,-272.75,-36,547,-931,18.8,1.4,-35.5,19.0,1.4,-35.0,5.73,2.44,-33.0,24.0
2012-12-03 01:02:00,0.0,1.9443,0.0010,409.66,0.20,-1.0,0.0,138.21,24.05,24.61,36.29,0.04,-272.74,-272.74,-36,547,-931,18.8,1.4,-35.4,19.0,1.4,-35.0,5.73,2.44,-33.0,24.0
2012-12-03 01:03:00,0.0,1.9444,0.0008,409.62,0.25,-1.0,0.0,138.21,24.05,24.61,36.30,0.04,-272.74,-272.74,-36,547,-931,18.8,1.4,-35.5,19.0,1.4,-35.1,5.73,2.44,-33.0,24.0
2012-12-03 01:04:00,0.0,1.9441,0.0010,409.70,0.22,-1.0,0.0,138.21,24.06,24.61,36.29,0.04,-272.74,-272.74,-36,547,-931,18.8,1.4,-35.5,19.0,1.4,-35.2,5.73,2.44,-33.0,24.0
2012-12-03 01:05:00,0.0,1.9442,0.0011,409.77,0.20,-1.0,0.0,138.21,24.06,24.61,36.29,0.04,-272.74,-272.74,-36,548,-931,18.9,1.4,-35.5,19.0,1.4,-35.2,5.73,2.44,-33.0,24.0
2012-12-03 01:06:00,0.0,1.9441,0.0010,409.64,0.22,-1.0,0.0,138.21,24.05,24.61,36.29,0.04,-272.74,-272.74,-36,548,-931,18.8,1.3,-35.6,19.0,1.4,-35.2,5.73,2.45,-33.0,24.0
2012-12-03 01:07:00,0.0,1.9435,0.0010,409.63,0.22,-1.0,0.0,138.21,24.05,24.61,36.29,0.04,-272.74,-272.75,-36,548,-931,18.9,1.3,-35.7,19.0,1.4,-35.3,5.73,2.45,-33.0,24.0
2012-12-03 01:08:00,0.0,1.9436,0.0012,409.61,0.21,-1.0,0.0,138.21,24.04,24.61,36.29,0.04,-272.74,-272.74,-36,547,-931,18.8,1.3,-35.9,19.0,1.4,-35.4,5.73,2.44,-33.0,24.0
2012-12-03 01:09:00,0.0,1.9431,0.0009,409.53,0.21,-1.0,0.0,138.21,24.03,24.61,36.30,0.04,-272.74,-272.74,-36,548,-931,18.9,1.3,-35.7,19.0,1.4,-35.3,5.73,2.44,-33.0,24.0
2012-12-03 01:10:00,0.0,1.9424,0.0009,409.55,0.23,-1.0,0.0,138.21,24.03,24.61,36.29,0.04,-272.74,-272.74,-36,547,-931,18.9,1.4,-35.5,19.0,1.4,-35.2,5.73,2.45,-33.0,24.0
2012-12-03 01:11:00,0.0,1.9421,0.0011,409.42,0.25,-1.0,0.0,138.21,24.03,24.61,36.30,0.04,-272.75,-272.74,-36,547,-931,18.8,1.4,-35.4,19.0,1.4,-35.0,5.73,2.44,-33.1,24.0
2012-12-03 01:12:00,0.0,1.9418,0.0009,409.48,0.24,-1.0,0.0,138.21,24.02,24.61,36.29,0.04,-272.74,-272.74,-36,547,-931,18.9,1.4,-35.3,19.0,1.4,-34.8,5.73,2.45,-33.1,23.9
2012-12-03 01:13:00,0.0,1.9422,0.0010,409.50,0.25,-1.0,0.0,138.21,24.02,24.61,36.29,0.04,-272.74,-272.75,-36,547,-931,18.8,1.4,-35.5,19.0,1.4,-35.0,5.73,2.45,-33.1,23.9
2012-12-03 01:14:00,0.0,1.9423,0.0012,409.43,0.23,-1.0,0.0,138.21,24.01,24.61,36.29,0.04,-272.74,-272.74,-36,547,-931,18.9,1.3,-35.6,19.0,1.4,-35.2,5.73,2.46,-33.1,23.9
2012-12-03 01:15:00,0.0,1.9425,0.0009,409.38,0.25,-1.0,0.0,138.21,24.01,24.61,36.30,0.04,-272.74,-272.74,-36,547,-931,18.9,1.3,-35.7,19.0,1.4,-35.2,5.73,2.46,-33.1,23.9
2012-12-03 01:16:00,0.0,1.9424,0.0011,409.53,0.18,-1.0,0.0,138.21,24.01,24.61,36.29,0.04,-272.74,-272.74,-36,547,-931,18.8,1.3,-35.7,19.0,1.4,-35.4,5.73,2.46,-33.2,23.8
2012-12-03 01:17:00,0.0,1.9419,0.0009,409.51,0.20,-1.0,0.0,138.21,24.01,24.61,36.28,0.04,-272.75,-272.74,-36,547,-931,18.8,1.3,-35.8,18.9,1.4,-35.4,5.73,2.45,-33.2,23.8
2012-12-03 01:18:00,0.0,1.9418,0.0010,409.37,0.21,-1.0,0.0,138.21,24.01,24.61,36.29,0.04,-272.74,-272.74,-36,547,-931,18.8,1.3,-35.8,18.9,1.4,-35.4,5.73,2.46,-33.3,23.7
2012-12-03 01:19:00,0.0,1.9415,0.0010,409.43,0.21,-1.0,0.0,138.21,24.01,24.61,36.29,0.04,-272.74,-272.74,-36,547,-931,18.8,1.3,-35.7,18.9,1.4,-35.3,5.73,2.45,-33.3,23.8
2012-12-03 01:20:00,0.0,1.9418,0.0009,409.51,0.25,-1.0,0.0,138.21,24.01,24.61,36.28,0.04,-272.75,-272.75,-36,547,-931,18.8,1.3,-35.7,18.9,1.4,-35.3,5.73,2.43,-33.3,23.7
2012-12-03 01:21:00,0.0,1.9423,0.0012,409.34,0.25,-1.0,0.0,138.22,24.00,24.61,36.29,0.04,-272.74,-272.74,-36,547,-931,18.8,1.3,-35.8,18.9,1.4,-35.4,5.73,2.43,-33.4,23.7
2012-12-03 01:22:00,0.0,1.9419,0.0011,409.37,0.24,-1.0,0.0,138.21,24.00,24.61,36.29,0.04,-272.74,-272.74,-36,547,-931,18.7,1.3,-35.9,18.8,1.4,-35.5,5.73,2.42,-33.4,23.7
2012-12-03 01:23:00,0.0,1.9412,0.0010,409.42,0.24,-1.0,0.0,138.22,23.99,24.61,36.28,0.04,-272.74,-272.74,-36,547,-931,18.7,1.3,-35.9,18.8,1.4,-35.5,5.73,2.43,-33.5,23.6
2012-12-03 01:24:00,0.0,1.9407,0.0008,409.34,0.23,-1.0,0.0,138.22,23.97,24.61,36.29,0.04,-272.74,-272.75,-36,546,-931,18.7,1.3,-36.0,18.8,1.4,-35.5,5.73,2.44,-33.5,23.5
2012-12-03 01:25:00,0.0,1.9401,0.0010,409.34,0.22,-1.0,0.0,138.22,23.96,24.61,36.28,0.04,-272.74,-272.74,-35,546,-931,18.7,1.3,-35.9,18.8,1.4,-35.6,5.73,2.44,-33.5,23.5
2012-12-03 01:26:00,0.0,1.9399,0.0010,409.39,0.22,-1.0,0.0,138.22,23.95,24.61,36.27,0.04,-272.74,-272.74,-35,546,-931,18.7,1.3,-35.9,18.7,1.4,-35.6,5.73,2.45,-33.6,23.4
2012-12-03 01:27:00,0.0,1.9395,0.0011,409.35,0.25,-1.0,0.0,138.22,23.95,24.62,36.28,0.04,-272.74,-272.74,-35,546,-931,18.6,1.3,-35.7,18.7,1.4,-35.4,5.73,2.46,-33.7,23.3
2012-12-03 01:28:00,0.0,1.9395,0.0008,409.33,0.24,-1.0,0.0,138.22,23.94,24.61,36.29,0.04,-272.74,-272.74,-36,546,-931,18.6,1.4,-35.6,18.7,1.4,-35.2,5.73,2.47,-33.7,23.3
2012-12-03 01:29:00,0.0,1.9397,0.0009,409.23,0.24,-1.0,0.0,138.22,23.93,24.61,36.29,0.04,-272.74,-272.74,-36,546,-931,18.5,1.4,-35.4,18.7,1.4,-35.0,5.73,2.47,-33.7,23.3
2012-12-03 01:30:00,0.0,1.9389,0.0008,409.26,0.22,-1.0,0.0,138.22,23.92,24.62,36.29,0.04,-272.74,-272.75,-36,546,-931,18.5,1.4,-35.3,18.7,1.4,-35.0,5.73,2.47,-33.8,23.3
2012-12-03 01:31:00,0.0,1.9392,0.0010,409.23,0.25,-1.0,0.0,138.22,23.91,24.61,36.29,0.04,-272.74,-272.74,-35,546,-931,18.5,1.4,-35.4,18.7,1.5,-34.9,5.73,2.47,-33.8,23.3
2012-12-03 01:32:00,0.0,1.9388,0.0008,409.02,0.23,-1.0,0.0,138.23,23.89,24.61,36.30,0.04,-272.74,-272.74,-35,546,-931,18.4,1.4,-35.2,18.6,1.5,-34.8,5.73,2.45,-33.8,23.2
2012-12-03 01:33:00,0.0,1.9391,0.0008,409.23,0.23,-1.0,0.0,138.23,23.87,24.61,36.29,0.04,-272.74,-272.74,-35,546,-931,18.4,1.4,-35.4,18.6,1.4,-35.0,5.73,2.43,-33.9,23.2
2012-12-03 01:34:00,0.0,1.9393,0.0010,409.19,0.18,-1.0,0.0,138.23,23.86,24.61,36.29,0.04,-272.75,-272.74,-35,545,-931,18.3,1.4,-35.7,18.6,1.4,-35.3,5.73,2.42,-33.9,23.2
2012-12-03 01:35:00,0.0,1.9390,0.0010,409.16,0.21,-1.0,0.0,138.23,23.84,24.61,36.29,0.04,-272.74,-272.74,-35,545,-931,18.3,1.4,-35.8,18.5,1.4,-35.4,5.73,2.42,-34.0,23.2
2012-12-03 01:36:00,0.0,1.9385,0.0008,409.29,0.23,-1.0,0.0,138.23,23.82,24.61,36.28,0.04,-272.74,-272.75,-35,545,-931,18.2,1.4,-35.8,18.5,1.4,-35.3,5.73,2.43,-34.0,23.1
2012-12-03 01:37:00,0.0,1.9380,0.0010,409.17,0.22,-1.0,0.0,138.23,23.80,24.61,36.29,0.04,-272.75,-272.74,-35,545,-931,18.2,1.4,-35.7,18.5,1.4,-35.3,5.73,2.45,-34.0,23.1
2012-12-03 01:38:00,0.0,1.9378,0.0011,409.29,0.22,-1.0,0.0,138.23,23.79,24.61,36.28,0.04,-272.74,-272.74,-35,545,-931,18.1,1.4,-35.7,18.4,1.4,-35.4,5.73,2.48,-34.1,23.1
2012-12-03 01:39:00,0.0,1.9377,0.0009,409.19,0.23,-1.0,0.0,138.23,23.77,24.61,36.29,0.04,-272.74,-272.75,-35,545,-930,18.0,1.4,-35.8,18.4,1.4,-35.4,5.73,2.49,-34.1,23.1
2012-12-03 01:40:00,0.0,1.9375,0.0010,409.31,0.19,-1.0,0.0,138.23,23.76,24.61,36.29,0.04,-272.74,-272.74,-35,545,-931,18.0,1.4,-36.0,18.3,1.4,-35.6,5.73,2.48,-34.1,23.1
2012-12-03 01:41:00,0.0,1.9373,0.0008,409.24,0.22,-1.0,0.0,138.23,23.74,24.61,36.29,0.04,-272.74,-272.75,-35,545,-930,17.9,1.3,-36.2,18.3,1.4,-35.7,5.73,2.46,-34.2,23.0
2012-12-03 01:42:00,0.0,1.9377,0.0010,409.20,0.20,-1.0,0.0,138.23,23.72,24.61,36.29,0.04,-272.74,-272.75,-35,545,-930,17.9,1.3,-36.3,18.3,1.4,-35.9,5.73,2.44,-34.2,23.0
2012-12-03 01:43:00,0.0,1.9365,0.0009,409.16,0.24,-1.0,0.0,138.24,23.71,24.61,36.29,0.04,-272.74,-272.74,-35,545,-930,17.8,1.3,-36.3,18.2,1.4,-35.9,5.73,2.41,-34.2,23.0
2012-12-03 01:44:00,0.0,1.9367,0.0009,409.25,0.25,-1.0,0.0,138.24,23.69,24.61,36.29,0.04,-272.74,-272.74,-35,544,-930,17.7,1.3,-36.3,18.2,1.4,-35.9,5.73,2.42,-34.3,23.0
2012-12-03 01:45:00,0.0,1.9362,0.0010,409.16,0.25,-1.0,0.0,138.24,23.67,24.61,36.29,0.04,-272.74,-272.75,-35,544,-930,17.7,1.4,-36.2,18.1,1.4,-35.8,5.73,2.46,-34.3,22.9
2012-12-03 01:46:00,0.0,1.9357,0.0009,409.20,0.23,-1.0,0.0,138.24,23.66,24.61,36.29,0.04,-272.74,-272.75,-35,544,-930,17.6,1.4,-36.2,18.1,1.4,-35.7,5.73,2.49,-34.3,22.9
2012-12-03 01:47:00,0.0,1.9361,0.0008,409.17,0.21,-1.0,0.0,138.24,23.64,24.61,36.29,0.04,-272.74,-272.75,-35,544,-930,17.6,1.4,-36.0,18.1,1.4,-35.6,5.73,2.50,-34.4,22.8
2012-12-03 01:48:00,0.0,1.9365,0.0008,409.16,0.25,-1.0,0.0,138.24,23.63,24.61,36.29,0.04,-272.74,-272.74,-35,544,-930,17.5,1.4,-36.1,18.0,1.4,-35.6,5.73,2.48,-34.4,22.8
2012-12-03 01:49:00,0.0,1.9361,0.0010,409.08,0.16,-1.0,0.0,138.24,23.61,24.61,36.29,0.04,-272.74,-272.74,-35,544,-930,17.4,1.4,-36.1,18.0,1.4,-35.7,5.73,2.44,-34.4,22.7
2012-12-03 01:50:00,0.0,1.9353,0.0008,409.23,0.21,-1.0,0.0,138.24,23.59,24.61,36.28,0.04,-272.75,-272.75,-34,544,-930,17.4,1.4,-36.1,17.9,1.4,-35.7,5.73,2.42,-34.5,22.7
2012-12-03 01:51:00,0.0,1.9345,0.0011,409.14,0.24,-1.0,0.0,138.24,23.57,24.61,36.29,0.04,-272.74,-272.75,-35,544,-930,17.4,1.4,-36.2,17.9,1.4,-35.8,5.73,2.42,-34.5,22.7
2012-12-03 01:52:00,0.0,1.9340,0.0010,409.05,0.20,-1.0,0.0,138.24,23.55,24.61,36.29,0.04,-272.74,-272.74,-35,544,-930,17.3,1.4,-36.2,17.9,1.4,-35.9,5.73,2.45,-34.6,22.7
2012-12-03 01:53:00,0.0,1.9345,0.0009,409.15,0.22,-1.0,0.0,138.24,23.53,24.61,36.29,0.04,-272.74,-272.74,-35,544,-930,17.3,1.4,-36.3,17.8,1.4,-35.9,5.73,2.50,-34.6,22.6
2012-12-03 01:54:00,0.0,1.9348,0.0011,409.14,0.25,-1.0,0.0,138.25,23.51,24.61,36.29,0.04,-272.74,-272.75,-34,544,-930,17.2,1.4,-36.3,17.7,1.4,-36.0,5.73,2.51,-34.6,22.6
2012-12-03 01:55:00,0.0,1.9344,0.0009,409.09,0.20,-1.0,0.0,138.25,23.49,24.61,36.29,0.04,-272.74,-272.74,-34,543,-930,17.2,1.4,-36.4,17.7,1.4,-36.2,5.73,2.48,-34.7,22.6
2012-12-03 01:56:00,0.0,1.9342,0.0011,409.02,0.22,-1.0,0.0,138.25,23.47,24.61,36.30,0.04,-272.74,-272.74,-35,543,-930,17.1,1.4,-36.6,17.6,1.4,-36.2,5.73,2.43,-34.7,22.5
2012-12-03 01:57:00,0.0,1.9340,0.0009,409.16,0.20,-1.0,0.0,138.25,23.46,24.61,36.28,0.04,-272.75,-272.74,-35,543,-930,17.0,1.4,-36.6,17.6,1.4,-36.2,5.73,2.41,-34.7,22.5
2012-12-03 01:58:00,0.0,1.9337,0.0011,409.23,0.21,-1.0,0.0,138.25,23.44,24.61,36.28,0.04,-272.74,-272.74,-34,543,-930,16.9,1.4,-36.6,17.5,1.4,-36.3,5.73,2.43,-34.8,22.4
2012-12-03 01:59:00,0.0,1.9337,0.0013,408.96,0.21,-1.0,0.0,138.25,23.42,24.62,36.29,0.04,-272.75,-272.74,-34,543,-930,16.9,1.4,-36.7,17.5,1.4,-36.3,5.73,2.47,-34.8,22.4
2012-12-03 02:00:00,0.0,1.9337,0.0009,409.05,0.22,-1.0,0.0,138.25,23.39,24.61,36.29,0.04,-272.74,-272.74,-34,543,-930,16.8,1.4,-36.7,17.4,1.4,-36.3,5.73,2.51,-34.9,22.4
2012-12-03 02:01:00,0.0,1.9334,0.0011,409.04,0.21,-1.0,0.0,138.25,23.37,24.61,36.29,0.04,-272.74,-272.75,-34,542,-930,16.8,1.4,-36.7,17.4,1.4,-36.4,5.73,2.49,-34.9,22.4
2012-12-03 02:02:00,0.0,1.9342,0.0011,409.10,0.19,-1.0,0.0,138.25,23.35,24.61,36.28,0.04,-272.74,-272.74,-34,542,-929,16.7,1.4,-36.8,17.3,1.3,-36.5,5.73,2.45,-34.9,22.3
2012-12-03 02:03:00,0.0,1.9329,0.0011,409.04,0.24,-1.0,0.0,138.26,23.33,24.61,36.29,0.04,-272.74,-272.75,-34,542,-930,16.7,1.4,-36.8,17.3,1.3,-36.6,5.73,2.41,-35.0,22.3
2012-12-03 02:04:00,0.0,1.9327,0.0009,409.06,0.20,-1.0,0.0,138.25,23.30,24.61,36.29,0.04,-272.74,-272.74,-34,542,-930,16.6,1.3,-37.1,17.3,1.3,-36.6,5.73,2.43,-35.0,22.3
2012-12-03 02:05:00,0.0,1.9321,0.0010,408.92,0.20,-1.0,0.0,138.25,23.28,24.61,36.29,0.04,-272.74,-272.75,-34,542,-929,16.5,1.3,-37.1,17.2,1.4,-36.6,5.73,2.48,-35.0,22.2
2012-12-03 02:06:00,0.0,1.9329,0.0011,409.01,0.16,-1.0,0.0,138.26,23.25,24.61,36.28,0.04,-272.74,-272.74,-34,542,-929,16.4,1.3,-37.2,17.1,1.3,-36.7,5.73,2.51,-35.1,22.2
2012-12-03 02:07:00,0.0,1.9331,0.0010,409.01,0.22,-1.0,0.0,138.26,23.23,24.62,36.29,0.04,-272.74,-272.74,-34,542,-929,16.4,1.3,-37.3,17.1,1.3,-37.0,5.73,2.51,-35.1,22.1
2012-12-03 02:08:00,0.0,1.9329,0.0009,408.87,0.18,-1.0,0.0,138.26,23.20,24.61,36.29,0.04,-272.74,-272.74,-33,542,-929,16.3,1.3,-37.3,17.0,1.3,-36.7,5.73,2.44,-35.2,22.1
2012-12-03 02:09:00,0.0,1.9321,0.0010,408.72,0.18,-1.0,0.0,138.26,23.18,24.62,36.30,0.04,-272.74,-272.74,-34,541,-929,16.3,1.4,-37.0,17.0,1.4,-36.5,5.73,2.41,-35.2,22.1
2012-12-03 02:10:00,0.0,1.9328,0.0009,408.81,0.19,-1.0,0.0,138.26,23.15,24.61,36.29,0.04,-272.74,-272.74,-34,541,-929,16.2,1.4,-37.0,16.9,1.4,-36.4,5.73,2.44,-35.2,22.0
2012-12-03 02:11:00,0.0,1.9329,0.0010,408.70,0.17,-1.0,0.0,138.26,23.13,24.61,36.30,0.04,-272.74,-272.74,-33,541,-929,16.2,1.4,-37.1,16.9,1.4,-36.5,5.73,2.49,-35.2,21.9
2012-12-03 02:12:00,0.0,1.9329,0.0009,408.66,0.22,-1.0,0.0,138.26,23.10,24.61,36.30,0.04,-272.74,-272.74,-33,541,-929,16.1,1.4,-37.1,16.8,1.4,-36.7,5.73,2.52,-35.3,21.9
2012-12-03 02:13:00,0.0,1.9333,0.0010,408.69,0.20,-1.0,0.0,138.26,23.08,24.61,36.30,0.04,-272.74,-272.74,-33,541,-929,16.0,1.3,-37.4,16.8,1.4,-36.8,5.73,2.48,-35.3,21.9
2012-12-03 02:14:00,0.0,1.9335,0.0011,408.62,0.26,-1.0,0.0,138.26,23.05,24.61,36.30,0.04,-272.74,-272.74,-33,541,-929,16.0,1.3,-37.4,16.7,1.3,-36.9,5.73,2.43,-35.4,21.9
2012-12-03 02:15:00,0.0,1.9334,0.0012,408.54,0.21,-1.0,0.0,138.27,23.03,24.61,36.31,0.04,-272.74,-272.75,-33,541,-929,15.9,1.3,-37.5,16.7,1.3,-37.0,5.73,2.41,-35.4,21.8
"startDT [UTC]","vpos","CH4 [ppm]","stdev(CH4) [ppm]","CO2 [ppm]","stdev(CO2) [ppm]","H2O [ppm]","stdev(H2O)","p_LGR [torr]","T_LGR [C]","mt1_LGR [us]","mt2_LGR [us]","T_ECpre [C]","T_EC1 [C]","T_EC2 [C]","p_inlet [hPa]","p_in [hPa]","p_out [hPa]","T_inlet [C]","RH_inlet [%]","dwpt_inlet [C]","T_vent [C]","RH_vent [%]","dwpt_vent [C]","flow_vent [l min-1]","flow_inlet [l min-1]","dwpt_sample [C]","T_room [C]"
2012-12-03 08:37:00,0.0,1.8757,0.0530,-1.00,0.00,-0.7,2.7,140.60,1.58,24.60,36.51,0.05,-272.57,-272.57,-12,540,-906,-3.0,6.4,-34.9,-2.7,6.4,-34.6,5.73,2.86,-50.1,0.4